Location: Newark
(49.8348°N, 24.0280°E)
Time: 00:34:04
(UTC+00:00)

S-56A Canister/Altair - Pass Details

Date: 31 January 2020
Orbit: 633 x 2499 km, 38.9° (Epoch: 23 February)

Event Time Altitude Azimuth Distance (km) Brightness Sun altitude
Rises 21:36:21 0° 262° (W) 3,457 - -55.3°
Reaches altitude 10° 21:41:31 10° 222° (SW) 2,190 - -55.6°
Maximum altitude 21:42:18 10° 213° (SSW) 2,128 - -55.7°
Drops below altitude 10° 21:43:05 10° 203° (SSW) 2,118 - -55.7°
Sets 21:47:31 0° 161° (SSE) 2,912 - -56.0°
